NOAA 16 DEB, 41537

Orbit data source: Space-Track

NOAA 16 DEB, 41537 is space debris in SSO originally from a launch on Thu, 21 Sep 2000 UTC launched from the Air Force Western Test Range (AFWTR). Debris objects in space refer to the collection of defunct objects orbiting the Earth. Examples of debris include non-operational satellites, rocket bodies, and fragments generated from explosions, collisions, or faulty payload assembly.

Loading next visibility...
Identifier
41537, 2000-055NM
Orbit
SSO
Country
Flag of USUS
Related business
Manufacturer
Unknown
Mission
Spacecraft
Bus & Motor
Unknown
Mass
Unknown
Launch date (UTC)
2000-09-21 (26 years ago)
Launch vehicle
Unknown
Launch site
Air Force Western Test Range (AFWTR)
Object type
Payload
Rocket body
Debris
Shape & HBR
Unknown shape, 0.1 m
Radar Cross Section
Small (<0.1 m²)

Expand to show TLE details & history
Last TLE update: 2 days ago

TLE from 2 days ago
0 NOAA 16 DEB
1 41537U 00055NM  26171.41700750  .00001417  00000-0  63745-3 0  9992
2 41537  98.5881 234.9909 0001774 292.1135  67.9855 14.23885134538082
Epoch: 2026-06-20T10:00Z
TLE epoch observation values (Epoch: 2026-06-20T10:00:29.448Z)
Latitude
-0.00011°
Longitude
176.23629°
Altitude
814.689 km
Speed
7.446 km/s
True Right ascension
15h 39m 57s
True Declination
0° 00' 00"
Sunlit
Object was in full shadow at epoch
Visualization orbit readout
Latitude
Unknown
Longitude
Unknown
Altitude
Unknown
Speed
Unknown
Apparent Right ascension
Unknown
Apparent Declination
Unknown
Sunlit
N/A
Visualization observer readout
Local Sidereal Time
21:34:43
Azimuth
Unknown
Elevation
Unknown
Doppler factor
Unknown
Orbital elements
Apogee altitude
810.666 km
Perigee altitude
808.116 km
Semi-major axis
7,187.528 km
Eccentricity
0.00018
Inclination
98.5881°
RAAN
234.9909°
Arg. of periapsis
292.1135°
True anomaly
68.00435°
Mean anomaly
67.9855°
Eccentric anomaly
67.99492°
Mean motion
3.56184 °/min
Orbital period
101.07 mins
BSTAR
0.00063745
Loading maneuver chart data...
Computing Atmospheric mass density...
Loading historical data...
Loading historical data...
Loading historical data...
Loading historical data...
Loading historical data...
Loading historical data...
Loading historical data...

Documentation

Showing up to 5 results
|